This is the latest recevied weather packets stored in our database for station/object IR9AK-10. If no packets are shown the sender has not sent any weather packets the latest 10 day(s).
| Time | Temp. | Humidity | Pressure | Rain* | Wind** | Luminosity | Snow |
|---|---|---|---|---|---|---|---|
| 1788366465 | 40.56° C | 37% | 1061.8 hPa | - | - | - | - |
| 1788365865 | 40.56° C | 38% | 1061.9 hPa | - | - | - | - |
| 1788365267 | 40.56° C | 36% | 1062 hPa | - | - | - | - |
| 1788364667 | 40.56° C | 36% | 1062.1 hPa | - | - | - | - |
| 1788364067 | 41.11° C | 37% | 1062.1 hPa | - | - | - | - |
| 1788363469 | 41.11° C | 36% | 1062.1 hPa | - | - | - | - |
| 1788362870 | 41.11° C | 36% | 1062.1 hPa | - | - | - | - |
| 1788362271 | 42.22° C | 35% | 1062.1 hPa | - | - | - | - |
| 1788361671 | 44.44° C | 32% | 1062.1 hPa | - | - | - | - |
| 1788361071 | 46.67° C | 29% | 1062 hPa | - | - | - | - |
| 1788360472 | 46.67° C | 29% | 1062.1 hPa | - | - | - | - |
| 1788359873 | 47.78° C | 28% | 1062 hPa | - | - | - | - |
| 1788359273 | 45° C | 32% | 1062.2 hPa | - | - | - | - |
| 1788358673 | 41.67° C | 37% | 1062.3 hPa | - | - | - | - |
| 1788358074 | 41.67° C | 37% | 1062.3 hPa | - | - | - | - |
| 1788357475 | 41.11° C | 37% | 1062.3 hPa | - | - | - | - |
| 1788356877 | 41.11° C | 37% | 1062.5 hPa | - | - | - | - |
| 1788356278 | 41.11° C | 38% | 1062.6 hPa | - | - | - | - |
| 1788355679 | 41.11° C | 37% | 1062.6 hPa | - | - | - | - |
| 1788355080 | 41.11° C | 37% | 1062.7 hPa | - | - | - | - |
| 1788354480 | 41.11° C | 38% | 1062.6 hPa | - | - | - | - |
| 1788353880 | 40.56° C | 38% | 1062.8 hPa | - | - | - | - |
| 1788353281 | 40.56° C | 38% | 1063 hPa | - | - | - | - |
| 1788352683 | 41.11° C | 38% | 1063 hPa | - | - | - | - |
| 1788352089 | 41.11° C | 37% | 1063.1 hPa | - | - | - | - |
* Rain since midnight (hover to see other rain measurements)
** Current wind speed in m/s (hover to see current wind gust speed)